This is the latest recevied weather packets stored in our database for station/object XE2RCS-34. If no packets are shown the sender has not sent any weather packets the latest 10 day(s).
| Time | Temp. | Humidity | Pressure | Rain* | Wind** | Luminosity | Snow |
|---|---|---|---|---|---|---|---|
| 1777851506 | 21.67° C | 58% | 1047.3 hPa | - | - | - | - |
| 1777850606 | 21.67° C | 58% | 1047.4 hPa | - | - | - | - |
| 1777849706 | 21.67° C | 59% | 1047.4 hPa | - | - | - | - |
| 1777848806 | 21.11° C | 58% | 1047.5 hPa | - | - | - | - |
| 1777847906 | 21.11° C | 58% | 1047.4 hPa | - | - | - | - |
| 1777847006 | 21.11° C | 58% | 1047.6 hPa | - | - | - | - |
| 1777846106 | 21.11° C | 57% | 1047.7 hPa | - | - | - | - |
| 1777845206 | 20.56° C | 58% | 1047.7 hPa | - | - | - | - |
| 1777844306 | 20° C | 58% | 1048 hPa | - | - | - | - |
| 1777843406 | 20° C | 59% | 1048.1 hPa | - | - | - | - |
| 1777842506 | 19.44° C | 59% | 1048.5 hPa | - | - | - | - |
| 1777841605 | 18.89° C | 60% | 1048.5 hPa | - | - | - | - |
| 1777840705 | 18.33° C | 61% | 1048.6 hPa | - | - | - | - |
| 1777839805 | 17.78° C | 61% | 1048.9 hPa | - | - | - | - |
| 1777838905 | 17.22° C | 61% | 1049.1 hPa | - | - | - | - |
| 1777838005 | 16.67° C | 62% | 1049.3 hPa | - | - | - | - |
| 1777837105 | 16.11° C | 63% | 1049.5 hPa | - | - | - | - |
| 1777836205 | 15.56° C | 63% | 1049.5 hPa | - | - | - | - |
| 1777835305 | 15° C | 63% | 1049.7 hPa | - | - | - | - |
| 1777834405 | 14.44° C | 64% | 1050.1 hPa | - | - | - | - |
| 1777833505 | 13.89° C | 64% | 1050.1 hPa | - | - | - | - |
| 1777832605 | 13.33° C | 64% | 1050.4 hPa | - | - | - | - |
| 1777831705 | 12.78° C | 65% | 1050.5 hPa | - | - | - | - |
| 1777830805 | 12.78° C | 64% | 1050.6 hPa | - | - | - | - |
| 1777829905 | 12.22° C | 64% | 1050.6 hPa | - | - | - | - |
* Rain since midnight (hover to see other rain measurements)
** Current wind speed in m/s (hover to see current wind gust speed)